SBIRS GEO-6 (USA 336) (53355 NORAD) Tracking and Keplerian Element Data

This shows tracking and keplerian element data for the satellite.

Feedback or suggestion? Click here.




ElementValue
Catalog53355
NameSBIRS GEO-6 (USA 336)
Epoch Orbit115
Epoch Day324.66497161
Epoch Year2022
RAAN311.9858
Inclination6.3845
Eccentricity0.0003319
Argument of Perigee320.2177
Mean Anonmoly241.8788
Mean Motion1.00273327
Decay Rate1.28E-06
L11 53355U 22092A 22324.66497161 .00000128 00000+0 00000+0 0 9998
L22 53355 6.3845 311.9858 0003319 320.2177 241.8788 1.00273327 1152



Live tracking and technical data element details for SBIRS GEO-6 (USA 336) (NORAD 53355). SBIRS GEO-6 (USA 336) can be tracked NOW for your location showing map with azimuth and elevation plus other details from your city location.







IsCatalogInMostPopularTable: catalog: 53355, numindb: 5
Update: records affected: 1



GetName: 53355 SBIRS GEO-6 (USA 336)

Hit Count: updated at: Thu, 08 Dec 2022 18:37:41 GMT